Location: Hanover
(52.3667°N, 9.7167°E)
Time: 03:06:48
(UTC+02:00)

ARIANE 6 FM1 Upper Stage - Pass Details

Date: 22 September 2024
Orbit: 564 x 594 km, 62.0° (Epoch: 06 October)

Event Time Altitude Azimuth Distance (km) Brightness Sun altitude
Exits shadow 04:46:46 23° 165° (SSE) 1,285 4.3 -21.3°
Drops below altitude 10° 04:48:32 10° 155° (SSE) 1,929 5.3 -21.1°
Sets 04:50:50 0° 150° (SSE) 2,827 6.3 -20.8°
